Tiempo cada hora Allenwil

Hoy, 31 Julio, Sábado

Tiempo Temperatura Precipitaciones Viento Presión Humedad
00:00 +18°C° 0 mm 1 mps 711 mmHg 95%
01:00 +16°C° 0.1 mm 1 mps 711 mmHg 95%
02:00 +16°C° 0.1 mm 1 mps 710 mmHg 95%
03:00 +16°C° 0.1 mm 1 mps 710 mmHg 95%
04:00 +16°C° 0 mm 1 mps 710 mmHg 94%
05:00 +15°C° 0 mm 0 mps 710 mmHg 94%
06:00 +16°C° 0 mm 0 mps 710 mmHg 93%
07:00 +17°C° 0 mm 0 mps 710 mmHg 86%
08:00 +20°C° 0 mm 1 mps 710 mmHg 79%
09:00 +21°C° 0 mm 1 mps 711 mmHg 72%
10:00 +22°C° 0 mm 1 mps 710 mmHg 69%
11:00 +22°C° 0 mm 1 mps 710 mmHg 67%
12:00 +23°C° 0 mm 1 mps 710 mmHg 64%
13:00 +22°C° 0.1 mm 1 mps 710 mmHg 66%
14:00 +21°C° 0.1 mm 2 mps 710 mmHg 69%
15:00 +21°C° 0.1 mm 2 mps 709 mmHg 71%
16:00 +20°C° 0.2 mm 2 mps 709 mmHg 76%
17:00 +19°C° 0.2 mm 2 mps 709 mmHg 81%
18:00 +19°C° 0.2 mm 1 mps 709 mmHg 87%
19:00 +18°C° 1.5 mm 1 mps 709 mmHg 90%
20:00 +16°C° 1.5 mm 1 mps 709 mmHg 94%
21:00 +15°C° 1.5 mm 1 mps 709 mmHg 97%
22:00 +15°C° 2.3 mm 1 mps 709 mmHg 97%
23:00 +15°C° 2.3 mm 1 mps 709 mmHg 97%

Mañana, 1 Agosto, Domingo

Tiempo Temperatura Precipitaciones Viento Presión Humedad
00:00 +15°C° 2.3 mm 1 mps 709 mmHg 98%
01:00 +14°C° 1.9 mm 1 mps 709 mmHg 97%
02:00 +14°C° 1.9 mm 1 mps 709 mmHg 97%
03:00 +13°C° 1.9 mm 0 mps 709 mmHg 96%
04:00 +13°C° 0.2 mm 0 mps 709 mmHg 96%
05:00 +13°C° 0.2 mm 0 mps 709 mmHg 96%
06:00 +13°C° 0.2 mm 0 mps 709 mmHg 96%
07:00 +13°C° 0.6 mm 0 mps 709 mmHg 96%
08:00 +13°C° 0.6 mm 0 mps 709 mmHg 95%
09:00 +15°C° 0.6 mm 1 mps 709 mmHg 95%
10:00 +14°C° 1.4 mm 1 mps 710 mmHg 95%
11:00 +14°C° 1.4 mm 1 mps 710 mmHg 96%
12:00 +14°C° 1.4 mm 1 mps 710 mmHg 96%
13:00 +15°C° 0.7 mm 1 mps 710 mmHg 92%
14:00 +15°C° 0.7 mm 1 mps 710 mmHg 88%
15:00 +16°C° 0.7 mm 1 mps 711 mmHg 84%
16:00 +16°C° 0.3 mm 1 mps 711 mmHg 87%
17:00 +15°C° 0.3 mm 1 mps 711 mmHg 90%
18:00 +15°C° 0.3 mm 1 mps 711 mmHg 93%
19:00 +14°C° 0.2 mm 1 mps 711 mmHg 94%
20:00 +13°C° 0.2 mm 1 mps 711 mmHg 94%
21:00 +13°C° 0.2 mm 1 mps 712 mmHg 94%
22:00 +12°C° 0 mm 1 mps 712 mmHg 94%
23:00 +12°C° 0 mm 1 mps 712 mmHg 93%

Pasado mañana, 2 Agosto, Lunes

Tiempo Temperatura Precipitaciones Viento Presión Humedad
00:00 +12°C° 0 mm 1 mps 712 mmHg 93%
01:00 +12°C° 0 mm 1 mps 712 mmHg 93%
02:00 +12°C° 0 mm 1 mps 712 mmHg 93%
03:00 +12°C° 0 mm 1 mps 712 mmHg 92%
04:00 +12°C° 0 mm 1 mps 712 mmHg 92%
05:00 +13°C° 0 mm 1 mps 712 mmHg 91%
06:00 +12°C° 0 mm 0 mps 712 mmHg 91%
07:00 +15°C° 0.1 mm 1 mps 713 mmHg 84%
08:00 +16°C° 0.1 mm 1 mps 713 mmHg 78%
09:00 +19°C° 0.1 mm 1 mps 713 mmHg 72%
10:00 +20°C° 0.3 mm 1 mps 713 mmHg 68%
11:00 +20°C° 0.3 mm 2 mps 713 mmHg 63%
12:00 +21°C° 0.3 mm 2 mps 713 mmHg 59%
13:00 +21°C° 0.3 mm 2 mps 713 mmHg 61%
14:00 +20°C° 0.3 mm 2 mps 713 mmHg 63%
15:00 +20°C° 0.3 mm 2 mps 713 mmHg 65%
16:00 +19°C° 0.3 mm 2 mps 713 mmHg 71%
17:00 +19°C° 0.3 mm 1 mps 713 mmHg 78%
18:00 +18°C° 0.3 mm 1 mps 713 mmHg 84%
19:00 +16°C° 0 mm 1 mps 713 mmHg 86%
20:00 +14°C° 0 mm 1 mps 713 mmHg 89%
21:00 +13°C° 0 mm 1 mps 714 mmHg 91%
22:00 +13°C° 0 mm 1 mps 713 mmHg 91%
23:00 +13°C° 0 mm 1 mps 713 mmHg 91%

3 Agosto, Martes

Tiempo Temperatura Precipitaciones Viento Presión Humedad
00:00 +12°C° 0 mm 1 mps 713 mmHg 91%
01:00 +12°C° 0 mm 1 mps 713 mmHg 92%
02:00 +12°C° 0 mm 1 mps 713 mmHg 92%
03:00 +11°C° 0 mm 1 mps 713 mmHg 92%
04:00 +12°C° 0 mm 1 mps 713 mmHg 91%
05:00 +13°C° 0 mm 1 mps 713 mmHg 90%
06:00 +14°C° 0 mm 1 mps 713 mmHg 89%
07:00 +16°C° 0 mm 1 mps 713 mmHg 80%
08:00 +18°C° 0 mm 2 mps 713 mmHg 71%
09:00 +20°C° 0 mm 2 mps 713 mmHg 62%
10:00 +21°C° 0.1 mm 3 mps 713 mmHg 58%
11:00 +22°C° 0.1 mm 4 mps 712 mmHg 54%
12:00 +23°C° 0.1 mm 4 mps 712 mmHg 50%
13:00 +23°C° 0 mm 4 mps 712 mmHg 51%
14:00 +23°C° 0 mm 4 mps 712 mmHg 53%
15:00 +23°C° 0 mm 4 mps 711 mmHg 55%
16:00 +22°C° 0.2 mm 3 mps 711 mmHg 63%
17:00 +20°C° 0.2 mm 2 mps 711 mmHg 71%
18:00 +20°C° 0.2 mm 1 mps 711 mmHg 80%
19:00 +19°C° 0.2 mm 1 mps 711 mmHg 83%
20:00 +18°C° 0.2 mm 1 mps 711 mmHg 85%
21:00 +16°C° 0.2 mm 1 mps 711 mmHg 88%
22:00 +16°C° 0.5 mm 1 mps 711 mmHg 90%
23:00 +16°C° 0.5 mm 1 mps 711 mmHg 92%

4 Agosto, Miércoles

Tiempo Temperatura Precipitaciones Viento Presión Humedad
00:00 +16°C° 0.5 mm 1 mps 711 mmHg 94%
01:00 +16°C° 1.9 mm 2 mps 710 mmHg 95%
02:00 +16°C° 1.9 mm 2 mps 710 mmHg 96%
03:00 +16°C° 1.9 mm 2 mps 710 mmHg 97%
04:00 +16°C° 1 mm 2 mps 710 mmHg 97%
05:00 +16°C° 1 mm 2 mps 710 mmHg 97%
06:00 +16°C° 1 mm 2 mps 710 mmHg 96%
07:00 +16°C° 0.5 mm 2 mps 710 mmHg 96%
08:00 +16°C° 0.5 mm 2 mps 710 mmHg 95%
09:00 +17°C° 0.5 mm 2 mps 710 mmHg 94%
10:00 +17°C° 0.3 mm 2 mps 710 mmHg 92%
11:00 +18°C° 0.3 mm 3 mps 710 mmHg 89%
12:00 +19°C° 0.3 mm 3 mps 710 mmHg 86%
13:00 +19°C° 0.7 mm 3 mps 710 mmHg 87%
14:00 +19°C° 0.7 mm 3 mps 710 mmHg 87%
15:00 +19°C° 0.7 mm 3 mps 710 mmHg 88%
16:00 +19°C° 1.3 mm 3 mps 709 mmHg 88%
17:00 +18°C° 1.3 mm 3 mps 709 mmHg 89%
18:00 +17°C° 1.3 mm 3 mps 709 mmHg 90%
19:00 +16°C° 2.8 mm 3 mps 709 mmHg 91%
20:00 +14°C° 2.8 mm 3 mps 710 mmHg 93%
21:00 +13°C° 2.8 mm 3 mps 710 mmHg 95%
22:00 +13°C° 0.3 mm 3 mps 711 mmHg 95%
23:00 +12°C° 0.3 mm 3 mps 711 mmHg 95%

5 Agosto, Jueves

Tiempo Temperatura Precipitaciones Viento Presión Humedad
00:00 +12°C° 0.3 mm 3 mps 711 mmHg 95%
01:00 +13°C° 0.1 mm 2 mps 711 mmHg 95%
02:00 +12°C° 0.1 mm 1 mps 711 mmHg 95%
03:00 +12°C° 0.1 mm 1 mps 711 mmHg 95%
04:00 +12°C° 0 mm 1 mps 711 mmHg 95%
05:00 +11°C° 0 mm 0 mps 711 mmHg 94%
06:00 +12°C° 0 mm 0 mps 711 mmHg 93%
07:00 +13°C° 0 mm 0 mps 711 mmHg 85%
08:00 +16°C° 0 mm 1 mps 711 mmHg 77%
09:00 +18°C° 0 mm 1 mps 711 mmHg 68%
10:00 +19°C° 0 mm 1 mps 711 mmHg 66%
11:00 +19°C° 0 mm 1 mps 710 mmHg 63%
12:00 +19°C° 0 mm 2 mps 710 mmHg 61%
13:00 +19°C° 0 mm 2 mps 710 mmHg 60%
14:00 +20°C° 0 mm 2 mps 710 mmHg 59%
15:00 +20°C° 0 mm 2 mps 709 mmHg 58%
16:00 +19°C° 0 mm 2 mps 709 mmHg 65%
17:00 +19°C° 0 mm 1 mps 709 mmHg 72%
18:00 +18°C° 0 mm 1 mps 708 mmHg 79%
19:00 +16°C° 0.2 mm 1 mps 708 mmHg 84%
20:00 +15°C° 0.2 mm 2 mps 708 mmHg 89%
21:00 +15°C° 0.2 mm 2 mps 708 mmHg 94%
22:00 +14°C° 0.7 mm 2 mps 708 mmHg 94%
23:00 +14°C° 0.7 mm 2 mps 708 mmHg 95%
Mostrar más

Necesitamos Su Consentimiento

Meteoprog y nuestros Proveedores de Servicios pueden almacenar y acceder a sus datos personales como cookies, identificadores de dispositivo u otras tecnologías similares de su dispositivo y procesar dichos datos para personalizar contenido y anuncios, además de ofrecer funciones de redes sociales y analizar el tráfico.

  • Almacenar y/o acceder a información en su dispositivo

    Se puede almacenar o acceder a cookies, identificadores de dispositivo u otra información de su dispositivo para los fines anteriormente indicados.

  • Anuncios y contenido personalizados, medición de anuncios y contenido, percepciones del público, y desarrollo de productos

    Los anuncios y el contenido pueden personalizarse en base a su perfil. Se pueden añadir más datos para personalizar mejor los anuncios y contenidos. Se puede medir el rendimiento de los anuncios y contenidos. Se puede obtener la percepción sobre el público que ha visto los anuncios y contenidos. Dichos datos pueden usarse para desarrollar o mejorar la experiencia del usuario, sistemas y software.

Al hacer clic en ‘Estoy De Acuerdo’ usted permitirá el uso de las cookies, identificadores de dispositivo, balizas web u otras tecnologías similares indicadas. Su configuración puede cambiarse desde el navegador de su dispositivo.

Para ciertos fines, los intereses legítimos pueden ser considerados por encima del consentimiento. Puede leer más sobre ello en nuestra Política de Privacidad y Cookies.